Time,TemperatureF,DewpointF,PressureIn,WindDirection,WindDirectionDegrees,WindSpeedMPH,WindSpeedGustMPH,Humidity,HourlyPrecipIn,Conditions,Clouds,dailyrainin,SoftwareType,DateUTC
2013-03-01 00:00:00,35.2,30.9,29.08,NW,315,2.0,2.0,84,0.00,,,0.01,meteohub,2013-03-01 05:00:00,
2013-03-01 00:02:00,35.2,30.9,29.07,NW,315,2.0,2.0,84,0.00,,,0.01,meteohub,2013-03-01 05:02:00,
2013-03-01 00:06:00,35.2,30.9,29.07,North,0,2.0,2.0,84,0.00,,,0.00,meteohub,2013-03-01 05:06:00,
2013-03-01 00:11:00,35.1,30.7,29.07,SW,225,2.0,2.0,84,0.00,,,0.00,meteohub,2013-03-01 05:11:00,
2013-03-01 00:14:00,35.2,30.9,29.07,NW,315,2.0,2.0,84,0.00,,,0.00,meteohub,2013-03-01 05:14:00,
2013-03-01 00:19:00,35.2,30.9,29.08,NW,315,1.0,2.0,84,0.00,,,0.00,meteohub,2013-03-01 05:19:00,
2013-03-01 00:24:00,35.2,30.9,29.08,NE,45,0.0,2.0,84,0.00,,,0.00,meteohub,2013-03-01 05:24:00,
2013-03-01 00:29:00,35.2,30.9,29.08,NE,45,1.0,2.0,84,0.00,,,0.00,meteohub,2013-03-01 05:29:00,
2013-03-01 00:34:00,35.2,30.9,29.08,NW,315,2.0,2.0,84,0.00,,,0.00,meteohub,2013-03-01 05:34:00,
2013-03-01 00:39:00,35.1,30.7,29.08,SW,225,1.0,2.0,84,0.00,,,0.00,meteohub,2013-03-01 05:39:00,
2013-03-01 00:44:00,35.2,30.9,29.08,NW,315,2.0,2.0,84,0.00,,,0.00,meteohub,2013-03-01 05:44:00,
2013-03-01 00:49:00,35.2,30.9,29.08,NW,315,2.0,2.0,84,0.00,,,0.00,meteohub,2013-03-01 05:49:00,
2013-03-01 00:55:00,35.2,30.9,29.08,NW,315,0.0,2.0,84,0.00,,,0.00,meteohub,2013-03-01 05:55:00,
2013-03-01 01:00:00,35.4,30.7,29.08,NE,45,0.0,2.0,83,0.00,,,0.00,meteohub,2013-03-01 06:00:00,
2013-03-01 01:05:00,35.4,30.7,29.08,North,0,2.0,2.0,83,0.00,,,0.00,meteohub,2013-03-01 06:05:00,
2013-03-01 01:10:00,35.6,30.7,29.08,WNW,293,5.0,5.0,82,0.00,,,0.00,meteohub,2013-03-01 06:10:00,
2013-03-01 01:15:00,35.8,30.7,29.07,North,0,2.0,5.0,82,0.00,,,0.00,meteohub,2013-03-01 06:15:00,
2013-03-01 01:20:00,36.0,30.9,29.08,NE,45,1.0,5.0,82,0.00,,,0.00,meteohub,2013-03-01 06:20:00,
2013-03-01 01:25:00,36.0,30.9,29.07,NE,45,1.0,5.0,82,0.00,,,0.00,meteohub,2013-03-01 06:25:00,
2013-03-01 01:30:00,36.1,31.1,29.08,North,0,2.0,3.0,82,0.00,,,0.00,meteohub,2013-03-01 06:30:00,
2013-03-01 01:35:00,36.0,30.7,29.08,NE,45,2.0,3.0,81,0.00,,,0.00,meteohub,2013-03-01 06:35:00,
2013-03-01 01:41:00,36.0,30.7,29.08,North,0,1.0,3.0,81,0.00,,,0.00,meteohub,2013-03-01 06:41:00,
2013-03-01 01:46:00,36.0,30.7,29.08,West,270,1.0,2.0,81,0.00,,,0.00,meteohub,2013-03-01 06:46:00,
2013-03-01 01:51:00,36.0,30.7,29.08,South,180,2.0,2.0,81,0.00,,,0.00,meteohub,2013-03-01 06:51:00,
2013-03-01 01:56:00,35.8,30.6,29.08,SW,225,1.0,2.0,81,0.00,,,0.00,meteohub,2013-03-01 06:56:00,
2013-03-01 02:01:00,35.6,30.4,29.08,NW,315,2.0,2.0,81,0.00,,,0.00,meteohub,2013-03-01 07:01:00,
2013-03-01 02:06:00,35.8,30.7,29.07,North,0,2.0,3.0,82,0.00,,,0.00,meteohub,2013-03-01 07:06:00,
2013-03-01 02:11:00,36.0,30.9,29.07,North,0,2.0,3.0,82,0.00,,,0.00,meteohub,2013-03-01 07:11:00,
2013-03-01 02:17:00,36.0,30.9,29.07,North,0,1.0,3.0,82,0.00,,,0.00,meteohub,2013-03-01 07:17:00,
2013-03-01 02:22:00,36.0,30.7,29.07,North,0,4.0,4.0,81,0.00,,,0.00,meteohub,2013-03-01 07:22:00,
2013-03-01 02:27:00,36.1,30.9,29.07,NE,45,2.0,4.0,81,0.00,,,0.00,meteohub,2013-03-01 07:27:00,
2013-03-01 02:32:00,36.3,31.1,29.08,NE,45,2.0,6.0,81,0.00,,,0.00,meteohub,2013-03-01 07:32:00,
2013-03-01 02:37:00,36.3,31.1,29.07,NW,315,3.0,6.0,81,0.00,,,0.00,meteohub,2013-03-01 07:37:00,
2013-03-01 02:42:00,36.3,31.1,29.08,NW,315,2.0,5.0,81,0.00,,,0.00,meteohub,2013-03-01 07:42:00,
2013-03-01 02:47:00,36.3,31.1,29.08,NW,315,2.0,4.0,81,0.00,,,0.00,meteohub,2013-03-01 07:47:00,
2013-03-01 02:52:00,36.3,31.1,29.07,NW,315,2.0,4.0,81,0.00,,,0.00,meteohub,2013-03-01 07:52:00,
2013-03-01 02:57:00,36.3,31.1,29.08,NW,315,1.0,3.0,81,0.00,,,0.00,meteohub,2013-03-01 07:57:00,
2013-03-01 03:02:00,36.1,30.9,29.08,NW,315,2.0,3.0,81,0.00,,,0.00,meteohub,2013-03-01 08:02:00,
2013-03-01 03:07:00,36.1,30.9,29.08,West,270,2.0,2.0,81,0.00,,,0.00,meteohub,2013-03-01 08:07:00,
2013-03-01 03:12:00,36.0,30.7,29.07,West,270,2.0,2.0,81,0.00,,,0.00,meteohub,2013-03-01 08:12:00,
2013-03-01 03:17:00,36.0,30.7,29.08,NW,315,2.0,2.0,81,0.00,,,0.00,meteohub,2013-03-01 08:17:00,
2013-03-01 03:22:00,36.0,30.7,29.08,NW,315,1.0,2.0,81,0.00,,,0.00,meteohub,2013-03-01 08:22:00,
2013-03-01 03:27:00,36.0,30.7,29.08,NE,45,1.0,2.0,81,0.00,,,0.00,meteohub,2013-03-01 08:27:00,
2013-03-01 03:32:00,36.0,30.7,29.08,West,270,1.0,2.0,81,0.00,,,0.00,meteohub,2013-03-01 08:32:00,
2013-03-01 03:37:00,36.0,30.7,29.08,NW,315,2.0,2.0,81,0.00,,,0.00,meteohub,2013-03-01 08:37:00,
2013-03-01 03:42:00,36.1,30.9,29.08,West,270,2.0,4.0,81,0.00,,,0.00,meteohub,2013-03-01 08:42:00,
2013-03-01 03:47:00,36.1,30.9,29.08,North,0,5.0,5.0,81,0.00,,,0.00,meteohub,2013-03-01 08:47:00,
2013-03-01 03:52:00,36.3,31.1,29.08,NE,45,3.0,6.0,81,0.00,,,0.00,meteohub,2013-03-01 08:52:00,
2013-03-01 03:57:00,36.5,31.3,29.08,North,0,4.0,7.0,81,0.00,,,0.00,meteohub,2013-03-01 08:57:00,
2013-03-01 04:02:00,36.7,31.5,29.08,North,0,5.0,8.0,81,0.00,,,0.00,meteohub,2013-03-01 09:02:00,
2013-03-01 04:07:00,36.5,31.3,29.09,North,0,3.0,8.0,81,0.00,,,0.00,meteohub,2013-03-01 09:07:00,
2013-03-01 04:12:00,36.5,31.3,29.09,NE,45,2.0,8.0,81,0.00,,,0.00,meteohub,2013-03-01 09:12:00,
2013-03-01 04:17:00,36.3,31.1,29.09,North,0,2.0,8.0,81,0.00,,,0.00,meteohub,2013-03-01 09:17:00,
2013-03-01 04:22:00,36.3,31.1,29.09,North,0,2.0,4.0,81,0.00,,,0.00,meteohub,2013-03-01 09:22:00,
2013-03-01 04:27:00,36.1,30.9,29.09,North,0,2.0,4.0,81,0.00,,,0.00,meteohub,2013-03-01 09:27:00,
2013-03-01 04:32:00,36.0,30.7,29.09,North,0,3.0,5.0,81,0.00,,,0.00,meteohub,2013-03-01 09:32:00,
2013-03-01 04:37:00,35.8,30.6,29.10,NW,315,2.0,5.0,81,0.00,,,0.00,meteohub,2013-03-01 09:37:00,
2013-03-01 04:42:00,35.8,30.6,29.10,North,0,3.0,5.0,81,0.00,,,0.00,meteohub,2013-03-01 09:42:00,
2013-03-01 04:47:00,35.8,30.6,29.10,NE,45,2.0,5.0,81,0.00,,,0.00,meteohub,2013-03-01 09:47:00,
2013-03-01 04:52:00,35.6,30.4,29.09,North,0,2.0,5.0,81,0.00,,,0.00,meteohub,2013-03-01 09:52:00,
2013-03-01 04:57:00,35.2,30.4,29.10,NE,45,1.0,4.0,82,0.00,,,0.00,meteohub,2013-03-01 09:57:00,
2013-03-01 05:02:00,34.9,30.0,29.10,NE,45,2.0,4.0,82,0.00,,,0.00,meteohub,2013-03-01 10:02:00,
2013-03-01 05:07:00,34.7,29.8,29.09,North,0,1.0,4.0,82,0.00,,,0.00,meteohub,2013-03-01 10:07:00,
2013-03-01 05:12:00,34.5,29.8,29.10,WNW,293,2.0,4.0,83,0.00,,,0.00,meteohub,2013-03-01 10:12:00,
2013-03-01 05:17:00,34.7,30.0,29.10,West,270,3.0,4.0,83,0.00,,,0.00,meteohub,2013-03-01 10:17:00,
2013-03-01 05:22:00,35.1,30.4,29.10,North,0,3.0,4.0,83,0.00,,,0.00,meteohub,2013-03-01 10:22:00,
2013-03-01 05:27:00,35.1,30.4,29.10,West,270,2.0,4.0,83,0.00,,,0.00,meteohub,2013-03-01 10:27:00,
2013-03-01 05:32:00,34.9,30.2,29.10,NW,315,4.0,5.0,83,0.00,,,0.00,meteohub,2013-03-01 10:32:00,
2013-03-01 05:37:00,35.1,30.4,29.11,West,270,4.0,5.0,83,0.00,,,0.00,meteohub,2013-03-01 10:37:00,
2013-03-01 05:42:00,34.9,30.2,29.10,West,270,3.0,4.0,83,0.00,,,0.00,meteohub,2013-03-01 10:42:00,
2013-03-01 05:47:00,34.7,30.0,29.11,NW,315,3.0,4.0,83,0.00,,,0.00,meteohub,2013-03-01 10:47:00,
2013-03-01 05:52:00,34.5,29.8,29.10,SW,225,4.0,4.0,83,0.00,,,0.00,meteohub,2013-03-01 10:52:00,
2013-03-01 05:57:00,34.2,29.5,29.11,West,270,5.0,5.0,83,0.00,,,0.00,meteohub,2013-03-01 10:57:00,
2013-03-01 06:02:00,34.2,29.5,29.11,NW,315,3.0,6.0,83,0.00,,,0.00,meteohub,2013-03-01 11:02:00,
2013-03-01 06:08:00,34.0,29.3,29.12,NW,315,4.0,6.0,83,0.00,,,0.00,meteohub,2013-03-01 11:08:00,
2013-03-01 06:13:00,34.0,29.3,29.12,NW,315,4.0,6.0,83,0.00,,,0.00,meteohub,2013-03-01 11:13:00,
2013-03-01 06:18:00,34.0,29.3,29.12,NW,315,4.0,4.0,83,0.00,,,0.00,meteohub,2013-03-01 11:18:00,
2013-03-01 06:23:00,34.0,29.3,29.12,NW,315,6.0,6.0,83,0.00,,,0.00,meteohub,2013-03-01 11:23:00,
2013-03-01 06:28:00,34.0,29.1,29.12,West,270,4.0,6.0,82,0.00,,,0.00,meteohub,2013-03-01 11:28:00,
2013-03-01 06:33:00,34.2,29.3,29.12,West,270,3.0,6.0,82,0.00,,,0.00,meteohub,2013-03-01 11:33:00,
2013-03-01 06:38:00,34.3,29.1,29.12,NE,45,3.0,6.0,81,0.00,,,0.00,meteohub,2013-03-01 11:38:00,
2013-03-01 06:43:00,34.3,28.8,29.12,NW,315,3.0,8.0,80,0.00,,,0.00,meteohub,2013-03-01 11:43:00,
2013-03-01 06:48:00,34.5,28.9,29.12,West,270,4.0,8.0,80,0.00,,,0.00,meteohub,2013-03-01 11:48:00,
2013-03-01 06:53:00,34.5,28.9,29.12,North,0,3.0,7.0,80,0.00,,,0.00,meteohub,2013-03-01 11:53:00,
2013-03-01 06:59:00,34.9,29.1,29.13,North,0,4.0,7.0,79,0.00,,,0.00,meteohub,2013-03-01 11:59:00,
2013-03-01 07:04:00,35.4,29.3,29.13,NW,315,4.0,8.0,78,0.00,,,0.00,meteohub,2013-03-01 12:04:00,
2013-03-01 07:09:00,35.8,28.6,29.13,NW,315,4.0,8.0,75,0.00,,,0.00,meteohub,2013-03-01 12:09:00,
2013-03-01 07:14:00,36.0,28.4,29.14,North,0,4.0,12.0,74,0.00,,,0.00,meteohub,2013-03-01 12:14:00,
2013-03-01 07:19:00,36.1,28.6,29.15,NW,315,7.0,12.0,74,0.00,,,0.00,meteohub,2013-03-01 12:19:00,
2013-03-01 07:24:00,36.1,28.4,29.14,NE,45,6.0,12.0,73,0.00,,,0.00,meteohub,2013-03-01 12:24:00,
2013-03-01 07:29:00,36.3,28.6,29.15,North,0,9.0,9.0,73,0.00,,,0.00,meteohub,2013-03-01 12:29:00,
2013-03-01 07:34:00,36.5,28.8,29.15,NW,315,4.0,9.0,73,0.00,,,0.00,meteohub,2013-03-01 12:34:00,
2013-03-01 07:39:00,36.7,28.6,29.15,WNW,293,11.0,11.0,72,0.00,,,0.00,meteohub,2013-03-01 12:39:00,
2013-03-01 07:44:00,36.9,28.8,29.15,NE,45,2.0,11.0,72,0.00,,,0.00,meteohub,2013-03-01 12:44:00,
2013-03-01 07:50:00,37.6,30.4,29.15,NW,315,8.0,11.0,75,0.00,,,0.00,meteohub,2013-03-01 12:50:00,
2013-03-01 07:57:00,39.7,31.1,29.15,West,270,6.0,11.0,71,0.00,,,0.00,meteohub,2013-03-01 12:57:00,
2013-03-01 08:02:00,40.5,30.4,29.15,NE,45,4.0,9.0,67,0.00,,,0.00,meteohub,2013-03-01 13:02:00,
2013-03-01 08:07:00,40.6,30.2,29.15,NE,45,8.0,14.0,66,0.00,,,0.00,meteohub,2013-03-01 13:07:00,
2013-03-01 08:12:00,41.0,29.8,29.15,North,0,11.0,14.0,64,0.00,,,0.00,meteohub,2013-03-01 13:12:00,
2013-03-01 08:17:00,40.8,30.0,29.15,NE,45,14.0,16.0,65,0.00,,,0.00,meteohub,2013-03-01 13:17:00,
2013-03-01 08:22:00,41.4,29.7,29.15,NW,315,18.0,18.0,63,0.00,,,0.00,meteohub,2013-03-01 13:22:00,
2013-03-01 08:27:00,39.2,28.4,29.15,North,0,11.0,18.0,65,0.00,,,0.00,meteohub,2013-03-01 13:27:00,
2013-03-01 08:32:00,39.7,29.3,29.15,NW,315,6.0,18.0,66,0.00,,,0.00,meteohub,2013-03-01 13:32:00,
2013-03-01 08:37:00,41.0,29.8,29.15,North,0,12.0,18.0,64,0.00,,,0.00,meteohub,2013-03-01 13:37:00,
2013-03-01 08:42:00,41.0,29.8,29.16,North,0,8.0,16.0,64,0.00,,,0.00,meteohub,2013-03-01 13:42:00,
2013-03-01 08:47:00,41.0,29.3,29.16,North,0,9.0,16.0,63,0.00,,,0.00,meteohub,2013-03-01 13:47:00,
2013-03-01 08:52:00,40.8,29.7,29.16,North,0,6.0,16.0,64,0.00,,,0.00,meteohub,2013-03-01 13:52:00,
2013-03-01 08:58:00,39.6,28.4,29.16,West,270,13.0,15.0,64,0.00,,,0.00,meteohub,2013-03-01 13:58:00,
2013-03-01 09:03:00,41.0,29.8,29.16,South,180,7.0,15.0,64,0.00,,,0.00,meteohub,2013-03-01 14:03:00,
2013-03-01 09:08:00,42.4,30.4,29.16,NW,315,9.0,14.0,62,0.00,,,0.00,meteohub,2013-03-01 14:08:00,
2013-03-01 09:13:00,42.4,29.1,29.15,NW,315,6.0,13.0,59,0.00,,,0.00,meteohub,2013-03-01 14:13:00,
2013-03-01 09:18:00,43.0,28.8,29.16,West,270,7.0,11.0,57,0.00,,,0.00,meteohub,2013-03-01 14:18:00,
2013-03-01 09:23:00,42.4,28.2,29.16,North,0,6.0,13.0,57,0.00,,,0.00,meteohub,2013-03-01 14:23:00,
2013-03-01 09:28:00,41.7,28.0,29.16,North,0,10.0,16.0,58,0.00,,,0.00,meteohub,2013-03-01 14:28:00,
2013-03-01 09:33:00,42.6,28.9,29.16,NE,45,11.0,16.0,58,0.00,,,0.00,meteohub,2013-03-01 14:33:00,
2013-03-01 09:38:00,43.0,28.4,29.16,NW,315,8.0,16.0,56,0.00,,,0.00,meteohub,2013-03-01 14:38:00,
2013-03-01 09:43:00,42.4,28.2,29.16,North,0,4.0,14.0,57,0.00,,,0.00,meteohub,2013-03-01 14:43:00,
2013-03-01 09:48:00,43.3,28.8,29.16,East,90,5.0,15.0,56,0.00,,,0.00,meteohub,2013-03-01 14:48:00,
2013-03-01 09:54:00,43.7,28.6,29.16,NW,315,4.0,15.0,55,0.00,,,0.00,meteohub,2013-03-01 14:54:00,
2013-03-01 09:59:00,43.7,27.7,29.16,NW,315,7.0,15.0,53,0.00,,,0.00,meteohub,2013-03-01 14:59:00,
2013-03-01 10:04:00,43.3,27.3,29.16,North,0,4.0,12.0,53,0.00,,,0.00,meteohub,2013-03-01 15:04:00,
2013-03-01 10:09:00,42.8,26.8,29.16,NW,315,10.0,15.0,53,0.00,,,0.00,meteohub,2013-03-01 15:09:00,
2013-03-01 10:14:00,42.3,27.3,29.16,NE,45,11.0,15.0,55,0.00,,,0.00,meteohub,2013-03-01 15:14:00,
2013-03-01 10:19:00,42.3,27.3,29.16,East,90,4.0,15.0,55,0.00,,,0.00,meteohub,2013-03-01 15:19:00,
2013-03-01 10:24:00,43.3,27.3,29.16,East,90,7.0,15.0,53,0.00,,,0.00,meteohub,2013-03-01 15:24:00,
2013-03-01 10:29:00,43.5,27.1,29.16,East,90,4.0,14.0,52,0.00,,,0.00,meteohub,2013-03-01 15:29:00,
2013-03-01 10:34:00,43.3,27.0,29.16,North,0,10.0,14.0,52,0.00,,,0.00,meteohub,2013-03-01 15:34:00,
2013-03-01 10:40:00,42.8,26.4,29.16,North,0,8.0,10.0,52,0.00,,,0.00,meteohub,2013-03-01 15:40:00,
2013-03-01 10:45:00,42.1,26.6,29.16,West,270,8.0,12.0,54,0.00,,,0.00,meteohub,2013-03-01 15:45:00,
2013-03-01 10:50:00,42.3,26.8,29.17,NW,315,2.0,12.0,54,0.00,,,0.00,meteohub,2013-03-01 15:50:00,
2013-03-01 10:55:00,41.9,26.1,29.17,WNW,293,6.0,8.0,53,0.00,,,0.00,meteohub,2013-03-01 15:55:00,
2013-03-01 11:00:00,41.4,25.9,29.17,East,90,8.0,11.0,54,0.00,,,0.00,meteohub,2013-03-01 16:00:00,
2013-03-01 11:05:00,41.2,25.9,29.17,NE,45,3.0,11.0,54,0.00,,,0.00,meteohub,2013-03-01 16:05:00,
2013-03-01 11:10:00,41.2,25.9,29.17,West,270,3.0,9.0,54,0.00,,,0.00,meteohub,2013-03-01 16:10:00,
2013-03-01 11:15:00,41.4,25.9,29.17,North,0,6.0,8.0,54,0.00,,,0.00,meteohub,2013-03-01 16:15:00,
2013-03-01 11:21:00,41.4,26.4,29.17,North,0,6.0,8.0,55,0.00,,,0.00,meteohub,2013-03-01 16:21:00,
2013-03-01 11:26:00,41.4,25.9,29.17,NE,45,1.0,9.0,54,0.00,,,0.00,meteohub,2013-03-01 16:26:00,
2013-03-01 11:31:00,41.5,26.1,29.17,NW,315,4.0,9.0,54,0.00,,,0.00,meteohub,2013-03-01 16:31:00,
2013-03-01 11:36:00,41.4,25.9,29.17,NW,315,5.0,9.0,54,0.00,,,0.00,meteohub,2013-03-01 16:36:00,
2013-03-01 11:41:00,41.2,25.9,29.17,North,0,5.0,8.0,54,0.00,,,0.00,meteohub,2013-03-01 16:41:00,
2013-03-01 11:46:00,41.0,25.7,29.17,NW,315,7.0,10.0,54,0.00,,,0.00,meteohub,2013-03-01 16:46:00,
2013-03-01 11:51:00,41.4,25.9,29.17,East,90,4.0,14.0,54,0.00,,,0.00,meteohub,2013-03-01 16:51:00,
2013-03-01 11:56:00,41.5,25.7,29.17,NW,315,8.0,14.0,53,0.00,,,0.00,meteohub,2013-03-01 16:56:00,
2013-03-01 12:01:00,41.2,25.9,29.17,NW,315,6.0,13.0,54,0.00,,,0.00,meteohub,2013-03-01 17:01:00,
2013-03-01 12:07:00,41.4,25.9,29.16,ESE,113,6.0,13.0,54,0.00,,,0.00,meteohub,2013-03-01 17:07:00,
2013-03-01 12:12:00,41.9,26.1,29.16,NW,315,9.0,13.0,53,0.00,,,0.00,meteohub,2013-03-01 17:12:00,
2013-03-01 12:17:00,42.1,26.2,29.16,North,0,10.0,10.0,53,0.00,,,0.00,meteohub,2013-03-01 17:17:00,
2013-03-01 12:22:00,41.9,26.1,29.16,NE,45,4.0,10.0,53,0.00,,,0.00,meteohub,2013-03-01 17:22:00,
2013-03-01 12:27:00,42.4,26.6,29.16,NE,45,10.0,11.0,53,0.00,,,0.00,meteohub,2013-03-01 17:27:00,
2013-03-01 12:32:00,42.1,26.2,29.16,NW,315,6.0,12.0,53,0.00,,,0.00,meteohub,2013-03-01 17:32:00,
2013-03-01 12:37:00,42.3,26.4,29.16,NW,315,6.0,12.0,53,0.00,,,0.00,meteohub,2013-03-01 17:37:00,
2013-03-01 12:42:00,42.4,26.6,29.16,NE,45,8.0,12.0,53,0.00,,,0.00,meteohub,2013-03-01 17:42:00,
2013-03-01 12:47:00,42.1,26.2,29.16,NW,315,9.0,9.0,53,0.00,,,0.00,meteohub,2013-03-01 17:47:00,
2013-03-01 12:52:00,42.3,26.4,29.15,North,0,8.0,14.0,53,0.00,,,0.00,meteohub,2013-03-01 17:52:00,
2013-03-01 12:58:00,42.3,26.4,29.16,North,0,8.0,14.0,53,0.00,,,0.00,meteohub,2013-03-01 17:58:00,
2013-03-01 13:03:00,42.1,26.2,29.16,South,180,6.0,14.0,53,0.00,,,0.00,meteohub,2013-03-01 18:03:00,
2013-03-01 13:08:00,42.4,26.6,29.15,NE,45,8.0,10.0,53,0.00,,,0.00,meteohub,2013-03-01 18:08:00,
2013-03-01 13:13:00,42.8,25.9,29.15,NE,45,3.0,11.0,51,0.00,,,0.00,meteohub,2013-03-01 18:13:00,
2013-03-01 13:18:00,43.0,26.6,29.16,NW,315,8.0,11.0,52,0.00,,,0.00,meteohub,2013-03-01 18:18:00,
2013-03-01 13:23:00,42.6,26.2,29.15,North,0,11.0,11.0,52,0.00,,,0.00,meteohub,2013-03-01 18:23:00,
2013-03-01 13:28:00,42.3,26.4,29.15,East,90,5.0,11.0,53,0.00,,,0.00,meteohub,2013-03-01 18:28:00,
2013-03-01 13:33:00,42.1,26.2,29.15,NW,315,5.0,11.0,53,0.00,,,0.00,meteohub,2013-03-01 18:33:00,
2013-03-01 13:39:00,42.1,26.2,29.15,North,0,7.0,11.0,53,0.00,,,0.00,meteohub,2013-03-01 18:39:00,
2013-03-01 13:47:00,41.7,25.9,29.15,NW,315,7.0,11.0,53,0.00,,,0.00,meteohub,2013-03-01 18:47:00,
2013-03-01 13:52:00,41.5,26.1,29.15,North,0,8.0,11.0,54,0.00,,,0.00,meteohub,2013-03-01 18:52:00,
2013-03-01 13:57:00,41.4,25.9,29.15,NW,315,7.0,11.0,54,0.00,,,0.00,meteohub,2013-03-01 18:57:00,
2013-03-01 14:02:00,41.0,25.2,29.15,NE,45,8.0,14.0,53,0.00,,,0.00,meteohub,2013-03-01 19:02:00,
2013-03-01 14:07:00,41.2,25.3,29.15,North,0,4.0,14.0,53,0.00,,,0.00,meteohub,2013-03-01 19:07:00,
2013-03-01 14:12:00,41.0,25.2,29.16,North,0,2.0,14.0,53,0.00,,,0.00,meteohub,2013-03-01 19:12:00,
2013-03-01 14:17:00,41.0,25.7,29.16,North,0,8.0,11.0,54,0.00,,,0.00,meteohub,2013-03-01 19:17:00,
2013-03-01 14:22:00,40.6,26.2,29.16,East,90,5.0,11.0,56,0.00,,,0.00,meteohub,2013-03-01 19:22:00,
2013-03-01 14:27:00,40.3,25.3,29.16,SW,225,8.0,9.0,55,0.00,,,0.00,meteohub,2013-03-01 19:27:00,
2013-03-01 14:32:00,39.9,25.0,29.17,NW,315,11.0,14.0,55,0.00,,,0.00,meteohub,2013-03-01 19:32:00,
2013-03-01 14:37:00,39.6,24.8,29.16,North,0,8.0,14.0,55,0.00,,,0.00,meteohub,2013-03-01 19:37:00,
2013-03-01 14:42:00,39.6,24.8,29.16,SW,225,3.0,14.0,55,0.00,,,0.00,meteohub,2013-03-01 19:42:00,
2013-03-01 14:47:00,39.9,25.0,29.16,NW,315,5.0,13.0,55,0.00,,,0.00,meteohub,2013-03-01 19:47:00,
2013-03-01 14:52:00,39.9,25.5,29.16,NW,315,2.0,9.0,56,0.00,,,0.00,meteohub,2013-03-01 19:52:00,
2013-03-01 14:58:00,39.7,25.3,29.17,North,0,4.0,11.0,56,0.00,,,0.00,meteohub,2013-03-01 19:58:00,
2013-03-01 15:03:00,39.6,25.2,29.17,West,270,8.0,11.0,56,0.00,,,0.00,meteohub,2013-03-01 20:03:00,
2013-03-01 15:08:00,39.6,25.2,29.17,North,0,8.0,11.0,56,0.00,,,0.00,meteohub,2013-03-01 20:08:00,
2013-03-01 15:13:00,39.6,25.2,29.17,NW,315,11.0,11.0,56,0.00,,,0.00,meteohub,2013-03-01 20:13:00,
2013-03-01 15:18:00,39.4,25.0,29.17,North,0,8.0,12.0,56,0.00,,,0.00,meteohub,2013-03-01 20:18:00,
2013-03-01 15:23:00,39.4,25.0,29.17,NW,315,8.0,12.0,56,0.00,,,0.00,meteohub,2013-03-01 20:23:00,
2013-03-01 15:28:00,39.2,24.4,29.18,NW,315,8.0,12.0,55,0.00,,,0.00,meteohub,2013-03-01 20:28:00,
2013-03-01 15:33:00,39.2,24.4,29.17,West,270,4.0,11.0,55,0.00,,,0.00,meteohub,2013-03-01 20:33:00,
2013-03-01 15:38:00,39.2,24.4,29.17,NW,315,4.0,11.0,55,0.00,,,0.00,meteohub,2013-03-01 20:38:00,
2013-03-01 15:43:00,39.2,24.4,29.18,NW,315,9.0,11.0,55,0.00,,,0.00,meteohub,2013-03-01 20:43:00,
2013-03-01 15:48:00,39.2,23.9,29.18,NW,315,6.0,9.0,54,0.00,,,0.00,meteohub,2013-03-01 20:48:00,
2013-03-01 15:54:00,39.2,24.4,29.18,NE,45,2.0,11.0,55,0.00,,,0.00,meteohub,2013-03-01 20:54:00,
2013-03-01 15:59:00,39.0,24.6,29.17,North,0,6.0,11.0,56,0.00,,,0.00,meteohub,2013-03-01 20:59:00,
2013-03-01 16:04:00,39.0,24.6,29.18,ENE,68,3.0,10.0,56,0.00,,,0.00,meteohub,2013-03-01 21:04:00,
2013-03-01 16:09:00,38.8,24.4,29.18,North,0,4.0,8.0,56,0.00,,,0.00,meteohub,2013-03-01 21:09:00,
2013-03-01 16:14:00,38.7,24.3,29.18,NE,45,5.0,8.0,56,0.00,,,0.00,meteohub,2013-03-01 21:14:00,
2013-03-01 16:19:00,38.7,24.3,29.18,NE,45,2.0,8.0,56,0.00,,,0.00,meteohub,2013-03-01 21:19:00,
2013-03-01 16:24:00,38.5,24.1,29.18,NW,315,3.0,8.0,56,0.00,,,0.00,meteohub,2013-03-01 21:24:00,
2013-03-01 16:29:00,38.5,24.1,29.18,North,0,3.0,8.0,56,0.00,,,0.00,meteohub,2013-03-01 21:29:00,
2013-03-01 16:34:00,38.5,24.1,29.18,WNW,293,3.0,8.0,56,0.00,,,0.00,meteohub,2013-03-01 21:34:00,
2013-03-01 16:40:00,38.5,24.1,29.19,North,0,4.0,4.0,56,0.00,,,0.00,meteohub,2013-03-01 21:40:00,
2013-03-01 16:45:00,38.5,24.1,29.18,North,0,1.0,8.0,56,0.00,,,0.00,meteohub,2013-03-01 21:45:00,
2013-03-01 16:50:00,38.3,23.9,29.19,NW,315,7.0,8.0,56,0.00,,,0.00,meteohub,2013-03-01 21:50:00,
2013-03-01 16:57:00,38.3,23.9,29.19,SW,225,3.0,8.0,56,0.00,,,0.00,meteohub,2013-03-01 21:57:00,
2013-03-01 17:02:00,38.3,24.4,29.19,NW,315,2.0,7.0,57,0.00,,,0.00,meteohub,2013-03-01 22:02:00,
2013-03-01 17:07:00,38.3,24.4,29.19,North,0,2.0,7.0,57,0.00,,,0.00,meteohub,2013-03-01 22:07:00,
2013-03-01 17:12:00,38.1,24.3,29.19,NE,45,2.0,4.0,57,0.00,,,0.00,meteohub,2013-03-01 22:12:00,
2013-03-01 17:17:00,38.1,24.3,29.19,East,90,1.0,4.0,57,0.00,,,0.00,meteohub,2013-03-01 22:17:00,
2013-03-01 17:22:00,37.8,23.9,29.19,NE,45,1.0,3.0,57,0.00,,,0.00,meteohub,2013-03-01 22:22:00,
2013-03-01 17:27:00,37.6,24.1,29.19,NE,45,2.0,3.0,58,0.00,,,0.00,meteohub,2013-03-01 22:27:00,
2013-03-01 17:32:00,37.6,24.1,29.19,NW,315,2.0,2.0,58,0.00,,,0.00,meteohub,2013-03-01 22:32:00,
2013-03-01 17:37:00,37.4,23.9,29.19,NW,315,1.0,2.0,58,0.00,,,0.00,meteohub,2013-03-01 22:37:00,
2013-03-01 17:42:00,37.4,23.9,29.20,South,180,2.0,2.0,58,0.00,,,0.00,meteohub,2013-03-01 22:42:00,
2013-03-01 17:47:00,37.4,23.9,29.20,West,270,3.0,3.0,58,0.00,,,0.00,meteohub,2013-03-01 22:47:00,
2013-03-01 17:52:00,37.6,24.1,29.20,West,270,3.0,4.0,58,0.00,,,0.00,meteohub,2013-03-01 22:52:00,
2013-03-01 17:57:00,37.6,24.1,29.19,West,270,6.0,6.0,58,0.00,,,0.00,meteohub,2013-03-01 22:57:00,
2013-03-01 18:02:00,37.8,24.3,29.20,NW,315,2.0,6.0,58,0.00,,,0.00,meteohub,2013-03-01 23:02:00,
2013-03-01 18:07:00,37.6,24.1,29.20,West,270,3.0,6.0,58,0.00,,,0.00,meteohub,2013-03-01 23:07:00,
2013-03-01 18:12:00,37.6,24.1,29.20,West,270,5.0,6.0,58,0.00,,,0.00,meteohub,2013-03-01 23:12:00,
2013-03-01 18:17:00,37.6,24.1,29.21,North,0,4.0,5.0,58,0.00,,,0.00,meteohub,2013-03-01 23:17:00,
2013-03-01 18:22:00,37.6,24.6,29.20,NE,45,2.0,5.0,59,0.00,,,0.00,meteohub,2013-03-01 23:22:00,
2013-03-01 18:27:00,37.6,24.6,29.20,NW,315,6.0,6.0,59,0.00,,,0.00,meteohub,2013-03-01 23:27:00,
2013-03-01 18:32:00,37.6,24.6,29.21,NW,315,5.0,6.0,59,0.00,,,0.00,meteohub,2013-03-01 23:32:00,
2013-03-01 18:37:00,37.6,24.6,29.21,North,0,8.0,8.0,59,0.00,,,0.00,meteohub,2013-03-01 23:37:00,
2013-03-01 18:42:00,37.4,24.8,29.21,NW,315,3.0,8.0,60,0.00,,,0.00,meteohub,2013-03-01 23:42:00,
2013-03-01 18:47:00,37.4,24.8,29.21,North,0,6.0,8.0,60,0.00,,,0.00,meteohub,2013-03-01 23:47:00,
2013-03-01 18:52:00,37.4,24.8,29.21,NW,315,8.0,10.0,60,0.00,,,0.00,meteohub,2013-03-01 23:52:00,
2013-03-01 18:57:00,37.4,24.8,29.21,SE,135,8.0,10.0,60,0.00,,,0.00,meteohub,2013-03-01 23:57:00,
2013-03-01 19:02:00,37.2,23.0,29.21,North,0,6.0,10.0,56,0.00,,,0.00,meteohub,2013-03-02 00:02:00,
2013-03-01 19:07:00,37.2,23.0,29.21,NW,315,4.0,10.0,56,0.00,,,0.00,meteohub,2013-03-02 00:07:00,
2013-03-01 19:12:00,37.0,22.8,29.21,NE,45,6.0,9.0,56,0.00,,,0.00,meteohub,2013-03-02 00:12:00,
2013-03-01 19:17:00,37.0,22.8,29.21,NW,315,3.0,8.0,56,0.00,,,0.00,meteohub,2013-03-02 00:17:00,
2013-03-01 19:22:00,37.0,22.8,29.21,North,0,7.0,8.0,56,0.00,,,0.00,meteohub,2013-03-02 00:22:00,
2013-03-01 19:27:00,37.0,22.8,29.21,NW,315,7.0,8.0,56,0.00,,,0.00,meteohub,2013-03-02 00:27:00,
2013-03-01 19:32:00,36.9,22.6,29.21,WNW,293,3.0,8.0,56,0.00,,,0.00,meteohub,2013-03-02 00:32:00,
2013-03-01 19:37:00,36.9,22.6,29.21,North,0,4.0,8.0,56,0.00,,,0.00,meteohub,2013-03-02 00:37:00,
2013-03-01 19:42:00,36.9,22.6,29.22,NW,315,6.0,8.0,56,0.00,,,0.00,meteohub,2013-03-02 00:42:00,
2013-03-01 19:47:00,36.9,22.6,29.21,NW,315,3.0,8.0,56,0.00,,,0.00,meteohub,2013-03-02 00:47:00,
2013-03-01 19:52:00,36.7,22.8,29.22,North,0,6.0,8.0,57,0.00,,,0.00,meteohub,2013-03-02 00:52:00,
2013-03-01 19:57:00,36.7,22.8,29.21,NW,315,4.0,8.0,57,0.00,,,0.00,meteohub,2013-03-02 00:57:00,
2013-03-01 20:02:00,36.7,22.8,29.21,NE,45,4.0,8.0,57,0.00,,,0.00,meteohub,2013-03-02 01:02:00,
2013-03-01 20:07:00,36.5,22.6,29.22,NE,45,2.0,8.0,57,0.00,,,0.00,meteohub,2013-03-02 01:07:00,
2013-03-01 20:13:00,36.3,22.5,29.22,North,0,4.0,6.0,57,0.00,,,0.00,meteohub,2013-03-02 01:13:00,
2013-03-01 20:18:00,36.3,22.5,29.22,NW,315,2.0,5.0,57,0.00,,,0.00,meteohub,2013-03-02 01:18:00,
2013-03-01 20:23:00,36.3,22.5,29.21,NW,315,4.0,4.0,57,0.00,,,0.00,meteohub,2013-03-02 01:23:00,
2013-03-01 20:28:00,36.1,22.8,29.22,North,0,4.0,4.0,58,0.00,,,0.00,meteohub,2013-03-02 01:28:00,
2013-03-01 20:33:00,36.3,22.5,29.22,North,0,3.0,4.0,57,0.00,,,0.00,meteohub,2013-03-02 01:33:00,
2013-03-01 20:38:00,36.3,22.5,29.22,NW,315,2.0,8.0,57,0.00,,,0.00,meteohub,2013-03-02 01:38:00,
2013-03-01 20:43:00,36.1,22.5,29.22,West,270,5.0,8.0,57,0.00,,,0.00,meteohub,2013-03-02 01:43:00,
2013-03-01 20:48:00,36.1,22.5,29.22,NW,315,4.0,8.0,57,0.00,,,0.00,meteohub,2013-03-02 01:48:00,
2013-03-01 20:53:00,36.1,22.5,29.22,North,0,5.0,6.0,57,0.00,,,0.00,meteohub,2013-03-02 01:53:00,
2013-03-01 20:58:00,36.1,22.5,29.22,North,0,4.0,6.0,57,0.00,,,0.00,meteohub,2013-03-02 01:58:00,
2013-03-01 21:04:00,36.0,22.3,29.22,North,0,2.0,7.0,57,0.00,,,0.00,meteohub,2013-03-02 02:04:00,
2013-03-01 21:09:00,36.1,22.5,29.22,NW,315,8.0,8.0,57,0.00,,,0.00,meteohub,2013-03-02 02:09:00,
2013-03-01 21:14:00,36.1,21.9,29.22,East,90,2.0,8.0,56,0.00,,,0.00,meteohub,2013-03-02 02:14:00,
2013-03-01 21:19:00,36.0,21.7,29.21,West,270,4.0,8.0,56,0.00,,,0.00,meteohub,2013-03-02 02:19:00,
2013-03-01 21:24:00,36.0,21.7,29.22,NW,315,8.0,8.0,56,0.00,,,0.00,meteohub,2013-03-02 02:24:00,
2013-03-01 21:29:00,36.0,21.7,29.22,NW,315,6.0,7.0,56,0.00,,,0.00,meteohub,2013-03-02 02:29:00,
2013-03-01 21:34:00,36.0,21.7,29.22,North,0,8.0,8.0,56,0.00,,,0.00,meteohub,2013-03-02 02:34:00,
2013-03-01 21:39:00,36.0,21.7,29.22,NW,315,2.0,8.0,56,0.00,,,0.00,meteohub,2013-03-02 02:39:00,
2013-03-01 21:44:00,35.8,21.6,29.22,North,0,3.0,8.0,56,0.00,,,0.00,meteohub,2013-03-02 02:44:00,
2013-03-01 21:50:00,35.8,21.6,29.22,NE,45,4.0,8.0,56,0.00,,,0.00,meteohub,2013-03-02 02:50:00,
2013-03-01 21:55:00,35.8,21.6,29.22,West,270,4.0,9.0,56,0.00,,,0.00,meteohub,2013-03-02 02:55:00,
2013-03-01 22:00:00,35.6,21.9,29.21,North,0,4.0,11.0,57,0.00,,,0.00,meteohub,2013-03-02 03:00:00,
2013-03-01 22:05:00,35.6,21.4,29.22,East,90,3.0,11.0,56,0.00,,,0.00,meteohub,2013-03-02 03:05:00,
2013-03-01 22:10:00,35.6,21.4,29.22,NW,315,4.0,11.0,56,0.00,,,0.00,meteohub,2013-03-02 03:10:00,
2013-03-01 22:15:00,35.6,21.9,29.22,North,0,2.0,5.0,57,0.00,,,0.00,meteohub,2013-03-02 03:15:00,
2013-03-01 22:20:00,35.4,22.1,29.22,NE,45,5.0,5.0,58,0.00,,,0.00,meteohub,2013-03-02 03:20:00,
2013-03-01 22:25:00,35.4,22.1,29.22,NW,315,2.0,5.0,58,0.00,,,0.00,meteohub,2013-03-02 03:25:00,
2013-03-01 22:30:00,35.2,21.9,29.22,NE,45,1.0,5.0,58,0.00,,,0.00,meteohub,2013-03-02 03:30:00,
2013-03-01 22:36:00,35.2,22.3,29.22,NW,315,2.0,5.0,59,0.00,,,0.00,meteohub,2013-03-02 03:36:00,
2013-03-01 22:41:00,35.1,22.1,29.22,NW,315,2.0,5.0,59,0.00,,,0.00,meteohub,2013-03-02 03:41:00,
2013-03-01 22:46:00,34.9,22.5,29.22,NW,315,2.0,3.0,60,0.00,,,0.00,meteohub,2013-03-02 03:46:00,
2013-03-01 22:51:00,34.9,22.8,29.22,North,0,4.0,4.0,61,0.00,,,0.00,meteohub,2013-03-02 03:51:00,
2013-03-01 22:56:00,35.1,22.6,29.22,NE,45,8.0,8.0,60,0.00,,,0.00,meteohub,2013-03-02 03:56:00,
2013-03-01 23:01:00,35.1,22.6,29.22,NW,315,9.0,10.0,60,0.00,,,0.00,meteohub,2013-03-02 04:01:00,
2013-03-01 23:06:00,35.1,22.1,29.22,North,0,8.0,10.0,59,0.00,,,0.00,meteohub,2013-03-02 04:06:00,
2013-03-01 23:11:00,34.9,22.5,29.22,NE,45,4.0,10.0,60,0.00,,,0.00,meteohub,2013-03-02 04:11:00,
2013-03-01 23:16:00,34.9,21.9,29.22,North,0,5.0,10.0,59,0.00,,,0.00,meteohub,2013-03-02 04:16:00,
2013-03-01 23:22:00,34.9,21.9,29.22,NW,315,5.0,8.0,59,0.00,,,0.00,meteohub,2013-03-02 04:22:00,
2013-03-01 23:27:00,34.9,21.9,29.22,North,0,6.0,8.0,59,0.00,,,0.00,meteohub,2013-03-02 04:27:00,
2013-03-01 23:32:00,34.9,21.9,29.22,NE,45,7.0,8.0,59,0.00,,,0.00,meteohub,2013-03-02 04:32:00,
2013-03-01 23:37:00,34.7,21.9,29.22,NE,45,5.0,7.0,59,0.00,,,0.00,meteohub,2013-03-02 04:37:00,
2013-03-01 23:42:00,34.7,21.9,29.22,NW,315,5.0,8.0,59,0.00,,,0.00,meteohub,2013-03-02 04:42:00,
2013-03-01 23:47:00,34.7,22.3,29.22,NW,315,2.0,8.0,60,0.00,,,0.00,meteohub,2013-03-02 04:47:00,
2013-03-01 23:52:00,34.5,22.1,29.22,NW,315,2.0,8.0,60,0.00,,,0.00,meteohub,2013-03-02 04:52:00,
2013-03-01 23:57:00,34.3,22.3,29.22,West,270,2.0,5.0,61,0.00,,,0.00,meteohub,2013-03-02 04:57:00,